PUJIANG 1 (PJ-1)        
1 40925U 15051A   19267.16331723  .00000384  00000-0  14195-4 0  9992
2 40925  97.1593 288.4841 0014848  96.9859 334.0126 15.33316892223526
TIANWANG 1C (TW-1C)     
1 40926U 15051B   19267.10274591  .00009662  00000-0  13303-3 0  9993
2 40926  97.1262 313.2053 0008044  23.6223   6.2811 15.57419807225319
TIANWANG 1B (TW-1B)     
1 40927U 15051C   19267.10844065  .00008634  00000-0  12668-3 0  9994
2 40927  97.1292 312.3818 0008619  34.7759  49.5110 15.55724541225153
TIANWANG 1A (TW-1A)     
1 40928U 15051D   19267.02678723  .00002122  00000-0  52947-4 0  9993
2 40928  97.1394 296.1657 0012769  79.9590   4.5750 15.41214440224160